Location: Boussac
(44.2782°N, 2.3665°E)
Time: 20:17:05
(UTC+00:00)

BREEZE-M DEB - Pass Details

Date: 15 May 2026
Orbit: 816 x 34900 km, 45.0° (Epoch: 8 June)

Event Time Altitude Azimuth Distance (km) Brightness Sun altitude
Rises 22:30:05 0° 258° (WSW) 3,343 6.9 -24.3°
Reaches altitude 10° 22:31:56 10° 258° (WSW) 2,426 6.2 -24.4°
Maximum altitude 22:36:26 89° 174° (S) 1,117 4.2 -24.7°
Drops below altitude 10° 22:48:19 10° 81° (E) 6,096 8.0 -25.3°
Sets 22:57:24 0° 83° (E) 9,785 9.1 -25.7°
